STARLINK-34760, 65359

Orbit data source: Space-Track

STARLINK-34760, 65359 is a payload satellite owned by SpaceX/Seattle (US) in LEO that was launched on Thu, 28 Aug 2025 UTC via an FALCON 9 launch vehicle from the Air Force Eastern Test Range (AFETR). Payload-class satellites include a variety of spacecraft equipped with specific instruments for various scientific and technological missions. These include communications satellites like Starlink; space stations such as the ISS; scientific satellites like the Hubble; Earth observation satellites from companies like Planet Labs, Umbra, and HawkEye 360; GPS; miniature CubeSats for education and research; and military/defense satellites.

Loading next visibility...
Identifier
65359, 2025-190J
Orbit
LEO
Country
Flag of USUS
Related business
Manufacturer
SpaceX/Seattle
Mission
Operational Commercial Communications
Bus & Motor
STARLINK V2MO, Unknown motor
Mass
575 kg wet, ~530 kg dry
Launch date (UTC)
2025-08-28 (7 months ago)
Launch vehicle
FALCON 9
Launch site
Air Force Eastern Test Range (AFETR)
Object type
Payload
Rocket body
Debris
Shape & HBR
Box + 2 Pan, 17.7 m
Radar Cross Section
36.964 m², Large (>1 m²)

Expand to show TLE details & history
Last TLE update: 12 hours ago

TLE from 12 hours ago
0 STARLINK-34760
1 65359U 25190J   26094.13323023  .00043608  00000-0  14758-2 0  9991
2 65359  53.1612  49.7852 0001239  88.0618 272.0524 15.30200966 33188
Epoch: 2026-04-04T03:11Z
TLE epoch observation values (Epoch: 2026-04-04T03:11:51.091Z)
Latitude
-0.00009°
Longitude
169.36487°
Altitude
476.082 km
Speed
7.629 km/s
True Right ascension
03h 19m 08s
True Declination
0° 00' 00"
Sunlit
Object was in daylight at epoch
Visualization orbit readout
Latitude
Unknown
Longitude
Unknown
Altitude
Unknown
Speed
Unknown
Apparent Right ascension
Unknown
Apparent Declination
Unknown
Sunlit
N/A
Visualization observer readout
Local Sidereal Time
21:25:31
Azimuth
Unknown
Elevation
Unknown
Doppler factor
Unknown
Orbital elements
Apogee altitude
476.318 km
Perigee altitude
474.619 km
Semi-major axis
6,853.605 km
Eccentricity
0.00012
Inclination
53.1612°
RAAN
49.7852°
Arg. of periapsis
88.0618°
True anomaly
272.03821°
Mean anomaly
272.0524°
Eccentric anomaly
272.04531°
Mean motion
3.82529 °/min
Orbital period
94.11 mins
BSTAR
0.0014758
Loading maneuver chart data...
Computing Atmospheric mass density...
Loading historical data...
Loading historical data...
Loading historical data...
Loading historical data...
Loading historical data...
Loading historical data...
Loading historical data...

Documentation

Showing up to 5 results
|